Weather History for Dubai International Airport, UAE

Change the Weather History Date:

Friday, September 20, 2013

  Actual Average Record
Temperature  
Mean Temperature 94 °F -  
Max Temperature 102 °F 95 °F - ()
Min Temperature 87 °F 77 °F - ()
Cooling Degree Days 30    
Growing Degree Days 44 (Base 50)    
Moisture  
Dew Point 76 °F    
Average Humidity 58    
Maximum Humidity 75    
Minimum Humidity 31    
Precipitation  
Precipitation 0.00 in 0.00 in - ()
Sea Level Pressure  
Sea Level Pressure 29.63 in    
Wind  
Wind Speed 7 mph ()    
Max Wind Speed 15 mph    
Max Gust Speed -    
Visibility 5.9 miles    
Events      
T = Trace of Precipitation, MM = Missing Value Source: Averaged Metar Reports

Daily Weather History Graph

Daily Weather History Graph

Search for Another Location

Airport:

Trip Planner

Search our weather history database for the weather conditions in past years. The results will help you decide how hot, cold, wet, or windy it might be!

Date:

Astronomy

Sep. 20, 2013 Rise Set
Actual Time 6:06 AM GST 6:17 PM GST
Civil Twilight 5:43 AM GST 6:40 PM GST
Nautical Twilight 5:16 AM GST 7:06 PM GST
Astronomical Twilight 4:49 AM GST 7:33 PM GST
Moon 6:48 PM GST (9/20) 6:45 AM GST (9/20)
Length of Visible Light 12h 56m
Length of Day
12h 10m
Full, 99% of the Moon is Illuminated
Sep 20
Full
Sep 27
Last Quarter
Oct 5
New
Oct 12
First Quarter
Oct 19
Full

Hourly Weather History & Observations

Time (GST) Temp. Heat Index Dew Point Humidity Pressure Visibility Wind Dir Wind Speed Gust Speed Precip Events Conditions
12:00 AM 91.4 °F 107.2 °F 78.8 °F 66% 29.62 in - NNW 8.1 mph - N/A   Clear
1:00 AM 91 °F - 79 °F 60% 29.63 in 6 mi NNW 8.1 mph - -  
1:00 AM 91.4 °F 107.2 °F 78.8 °F 66% 29.62 in - NNW 8.1 mph - N/A   Clear
2:00 AM 91.4 °F 102.5 °F 75.2 °F 59% 29.62 in - NNE 4.6 mph - N/A   Clear
3:00 AM 91.4 °F 102.5 °F 75.2 °F 59% 29.59 in - NNE 5.8 mph - N/A   Clear
4:00 AM 91.4 °F 107.2 °F 78.8 °F 66% 29.62 in - NE 4.6 mph - N/A   Clear
5:00 AM 89.6 °F 102.2 °F 77.0 °F 66% 29.62 in - ENE 5.8 mph - N/A   Clear
6:00 AM 87.8 °F 99.7 °F 77.0 °F 70% 29.65 in - ESE 6.9 mph - N/A   Clear
7:00 AM 88 °F - 79 °F 69% 29.67 in 6 mi East 5.8 mph - -   Haze
7:00 AM 87.8 °F 102.5 °F 78.8 °F 75% 29.65 in 5.6 mi East 5.8 mph - N/A   Unknown
8:00 AM 91.4 °F 105.1 °F 77.0 °F 63% 29.68 in - East 4.6 mph - N/A   Clear
9:00 AM 95.0 °F 99.5 °F 68.0 °F 41% 29.68 in - East 5.8 mph - N/A   Clear
10:00 AM 98.6 °F 105.5 °F 69.8 °F 39% 29.68 in - Variable 3.5 mph - N/A   Clear
11:00 AM 102.2 °F 106.9 °F 66.2 °F 31% 29.68 in - SW 5.8 mph - N/A   Clear
12:00 PM 100.4 °F 116.5 °F 77.0 °F 47% 29.65 in - Variable 5.8 mph - N/A   Clear
1:00 PM 100 °F - 76 °F 37% 29.65 in 6 mi NW 11.5 mph - -  
1:00 PM 100.4 °F 116.5 °F 77.0 °F 47% 29.65 in - NW 11.5 mph - N/A   Clear
2:00 PM 100.4 °F 109.3 °F 71.6 °F 39% 29.62 in - NW 13.8 mph - N/A   Clear
3:00 PM 98.6 °F 109.2 °F 73.4 °F 44% 29.59 in - NW 15.0 mph - N/A   Clear
4:00 PM 96.8 °F 105.1 °F 71.6 °F 44% 29.59 in - NW 15.0 mph - N/A   Clear
5:00 PM 96.8 °F 105.1 °F 71.6 °F 44% 29.59 in - NNW 15.0 mph - N/A   Clear
6:00 PM 93.2 °F 113.6 °F 80.6 °F 67% 29.59 in - NNW 12.7 mph - N/A   Clear
7:00 PM 92 °F - 81 °F 63% 29.62 in 6 mi NNW 10.4 mph - -  
7:00 PM 93.2 °F 113.6 °F 80.6 °F 67% 29.62 in - NNW 10.4 mph - N/A   Clear
8:00 PM 91.4 °F 111.0 °F 80.6 °F 71% 29.62 in - NNW 6.9 mph - N/A   Clear
9:00 PM 91.4 °F 111.0 °F 80.6 °F 71% 29.62 in - NNW 5.8 mph - N/A   Clear
10:00 PM 91.4 °F 111.0 °F 80.6 °F 71% 29.62 in - Variable 4.6 mph - N/A   Clear
11:00 PM 91.4 °F 111.0 °F 80.6 °F 71% 29.62 in - Variable 3.5 mph - N/A   Clear